2021-033E (48252 NORAD) Tracking and Keplerian Element Data

This shows tracking and keplerian element data for the satellite.

Feedback or suggestion? Click here.




ElementValue
Catalog48252
Name2021-033E
Epoch Orbit297
Epoch Day136.80428067
Epoch Year2021
RAAN212.31
Inclination97.3923
Eccentricity0.0010592
Argument of Perigee201.234
Mean Anonmoly275.5089
Mean Motion15.21414613
Decay Rate1.185E-05
L11 48252U 21033E 21136.80428067 .00001185 00000-0 55800-4 0 9995
L22 48252 97.3923 212.3100 0010592 201.2340 275.5089 15.21414613 2976

Live tracking and technical data element details for 2021-033E (NORAD 48252). 2021-033E can be tracked NOW for your location showing map with azimuth and elevation plus other details from your city location.

Track the satellite on the map from your city or location and see movement details for azimuth, elevation, latitude, longitude, range, height, and movement on the map or in text.







IsCatalogInMostPopularTable: catalog: 48252, numindb: 4
Update: records affected: 1



GetName: 48252 2021-033E

Hit Count: updated at: Mon, 17 May 2021 16:07:25 GMT